^^
Saratoga-Weather Station Historical Data
Daily Summary for January 14, 2020 Units:  English    Metric   Both
Daily Weekly Monthly Yearly Custom
  High: Low: Average:
Temperature: 55 °F 33.4 °F 44.6 °F
Dew Point: 32.2 °F 26.8 °F 29.5 °F
Humidity: 77% 38% 57%
Wind Speed: 10.1mph 0mph 1.9mph
Wind Gust: 14mph - -
Wind- - South
Pressure: 30.3 in 30.2 in -
Precipitation: 0 in    
Historical Graphs
 
 
Tabular Data for January 14, 2020
Time Temperature Dew Point Pressure Wind Wind Speed Wind Gust Humidity Rainfall Rate (Hourly) solar
00:04 42.6 °F 29.3 °F 30.2 in NW 0.9 mph 1 mph 59% 0 in 0 W/m2
00:09 42.3 °F 28.9 °F 30.2 in NE 2.9 mph 3 mph 59% 0 in 0 W/m2
00:14 42.3 °F 29.3 °F 30.2 in NNW 2.9 mph 4 mph 60% 0 in 0 W/m2
00:19 42.1 °F 28.8 °F 30.2 in NNE 0.9 mph 5 mph 59% 0 in 0 W/m2
00:24 42.1 °F 28.8 °F 30.2 in West 2.9 mph 3 mph 59% 0 in 0 W/m2
00:29 41.9 °F 28.9 °F 30.2 in West 2 mph 4 mph 60% 0 in 0 W/m2
00:34 41.7 °F 28.9 °F 30.2 in WNW 0.9 mph 4 mph 60% 0 in 0 W/m2
00:39 41.5 °F 28.8 °F 30.2 in Calm   1 mph 60% 0 in 0 W/m2
00:44 41.5 °F 29.1 °F 30.2 in SE 0.9 mph 2 mph 61% 0 in 0 W/m2
00:49 41.2 °F 28.8 °F 30.2 in ENE 2 mph 2 mph 61% 0 in 0 W/m2
00:54 41.2 °F 28.8 °F 30.2 in West 0.9 mph 2 mph 61% 0 in 0 W/m2
00:59 41 °F 28.9 °F 30.2 in WNW 0.9 mph 2 mph 62% 0 in 0 W/m2
01:04 40.8 °F 28.8 °F 30.2 in WNW 0.9 mph 3 mph 62% 0 in 0 W/m2
01:09 40.6 °F 28.6 °F 30.2 in NW 2 mph 3 mph 62% 0 in 0 W/m2
01:14 40.5 °F 28.4 °F 30.2 in WNW 0.9 mph 4 mph 62% 0 in 0 W/m2
01:19 40.5 °F 28.9 °F 30.2 in NNW 0.9 mph 2 mph 63% 0 in 0 W/m2
01:24 40.3 °F 28.8 °F 30.2 in Calm   3 mph 63% 0 in 0 W/m2
01:29 40.1 °F 28.6 °F 30.2 in NE 0.9 mph 3 mph 63% 0 in 0 W/m2
01:34 39.9 °F 28.8 °F 30.2 in North 0.9 mph 1 mph 64% 0 in 0 W/m2
01:39 39.7 °F 28.6 °F 30.2 in West 0.9 mph 1 mph 64% 0 in 0 W/m2
01:44 39.7 °F 28.6 °F 30.2 in North 0.9 mph 4 mph 64% 0 in 0 W/m2
01:49 39.7 °F 28.6 °F 30.2 in NNE 0.9 mph 3 mph 64% 0 in 0 W/m2
01:54 39.7 °F 28.6 °F 30.2 in West 2.9 mph 4 mph 64% 0 in 0 W/m2
01:59 39.7 °F 28.6 °F 30.2 in NW 4 mph 4 mph 64% 0 in 0 W/m2
02:04 39.7 °F 28.6 °F 30.2 in West 0.9 mph 2 mph 64% 0 in 0 W/m2
02:09 39.6 °F 28.4 °F 30.2 in Calm   1 mph 64% 0 in 0 W/m2
02:14 39.4 °F 28.2 °F 30.2 in North 0.9 mph 3 mph 64% 0 in 0 W/m2
02:19 39.4 °F 28.6 °F 30.2 in WNW 0.9 mph 3 mph 65% 0 in 0 W/m2
02:24 39.2 °F 28.4 °F 30.2 in WNW 2 mph 5 mph 65% 0 in 0 W/m2
02:29 39.2 °F 28.4 °F 30.2 in Calm   3 mph 65% 0 in 0 W/m2
02:34 39 °F 28.2 °F 30.2 in NW 2.9 mph 3 mph 65% 0 in 0 W/m2
02:39 39 °F 28.2 °F 30.2 in Calm   3 mph 65% 0 in 0 W/m2
02:44 38.8 °F 28 °F 30.2 in WNW 0.9 mph 2 mph 65% 0 in 0 W/m2
02:49 38.8 °F 28 °F 30.2 in Calm   4 mph 65% 0 in 0 W/m2
02:54 38.7 °F 27.9 °F 30.2 in NE 0.9 mph 1 mph 65% 0 in 0 W/m2
02:59 38.7 °F 28.2 °F 30.2 in North 2 mph 7 mph 66% 0 in 0 W/m2
03:04 38.5 °F 28 °F 30.2 in West 2.9 mph 5 mph 66% 0 in 0 W/m2
03:09 38.5 °F 28 °F 30.2 in WNW 2 mph 7 mph 66% 0 in 0 W/m2
03:14 38.5 °F 28 °F 30.2 in NW 2 mph 5 mph 66% 0 in 0 W/m2
03:19 38.5 °F 28 °F 30.2 in North 4.9 mph 5 mph 66% 0 in 0 W/m2
03:24 38.5 °F 28 °F 30.2 in NNW 4 mph 8 mph 66% 0 in 0 W/m2
03:29 38.3 °F 27.9 °F 30.2 in WSW 2.9 mph 7 mph 66% 0 in 0 W/m2
03:34 38.1 °F 27.9 °F 30.2 in NW 0.9 mph 3 mph 66% 0 in 0 W/m2
03:40 37.9 °F 28 °F 30.2 in West 0.9 mph 2 mph 67% 0 in 0 W/m2
03:45 37.9 °F 28 °F 30.2 in NNW 2 mph 3 mph 67% 0 in 0 W/m2
03:50 37.9 °F 28 °F 30.2 in WNW 2 mph 2 mph 67% 0 in 0 W/m2
03:55 37.9 °F 28 °F 30.2 in NNW 0.9 mph 4 mph 67% 0 in 0 W/m2
04:00 37.8 °F 27.9 °F 30.2 in WNW 2 mph 4 mph 67% 0 in 0 W/m2
04:05 37.8 °F 27.9 °F 30.2 in Calm   5 mph 67% 0 in 0 W/m2
04:10 37.6 °F 27.7 °F 30.2 in Calm   4 mph 67% 0 in 0 W/m2
04:16 37.6 °F 28 °F 30.2 in WNW 2 mph 3 mph 68% 0 in 0 W/m2
04:21 37.4 °F 27.9 °F 30.2 in North 2 mph 4 mph 68% 0 in 0 W/m2
04:26 37.2 °F 27.7 °F 30.2 in Calm   2 mph 68% 0 in 0 W/m2
04:31 37.2 °F 27.7 °F 30.2 in WNW 2 mph 5 mph 68% 0 in 0 W/m2
04:36 37 °F 27.5 °F 30.2 in West 2 mph 2 mph 68% 0 in 0 W/m2
04:41 36.9 °F 27.7 °F 30.2 in Calm   4 mph 69% 0 in 0 W/m2
04:46 36.9 °F 27.7 °F 30.2 in NNW 0.9 mph 4 mph 69% 0 in 0 W/m2
04:51 36.9 °F 27.7 °F 30.2 in NW 0.9 mph 2 mph 69% 0 in 0 W/m2
04:56 36.7 °F 27.5 °F 30.2 in NNW 0.9 mph 4 mph 69% 0 in 0 W/m2
05:01 36.5 °F 27.7 °F 30.2 in NE 0.9 mph 2 mph 70% 0 in 0 W/m2
05:06 36.5 °F 27.7 °F 30.2 in Calm   2 mph 70% 0 in 0 W/m2
05:11 36.3 °F 27.5 °F 30.2 in SSE 2 mph 3 mph 70% 0 in 0 W/m2
05:16 36.1 °F 27.3 °F 30.2 in Calm   2 mph 70% 0 in 0 W/m2
05:21 36.1 °F 27.3 °F 30.2 in NE 2 mph 2 mph 70% 0 in 0 W/m2
05:26 36 °F 27.5 °F 30.2 in Calm   1 mph 71% 0 in 0 W/m2
05:31 36 °F 27.5 °F 30.2 in East 0.9 mph 1 mph 71% 0 in 0 W/m2
05:36 35.8 °F 27.3 °F 30.2 in NNW 0.9 mph 2 mph 71% 0 in 0 W/m2
05:42 35.6 °F 27.1 °F 30.2 in NW 0.9 mph 3 mph 71% 0 in 0 W/m2
05:47 35.4 °F 27.3 °F 30.2 in Calm   1 mph 72% 0 in 0 W/m2
05:52 35.4 °F 27.3 °F 30.2 in Calm   1 mph 72% 0 in 0 W/m2
05:57 35.2 °F 27.5 °F 30.2 in Calm   1 mph 73% 0 in 0 W/m2
06:02 35.1 °F 27.3 °F 30.2 in Calm   1 mph 73% 0 in 0 W/m2
06:07 34.9 °F 27.1 °F 30.2 in Calm   1 mph 73% 0 in 0 W/m2
06:12 34.7 °F 27.3 °F 30.2 in Calm   1 mph 74% 0 in 0 W/m2
06:17 34.5 °F 27.1 °F 30.2 in Calm   1 mph 74% 0 in 0 W/m2
06:23 34.3 °F 27.3 °F 30.2 in SE 2 mph 2 mph 75% 0 in 0 W/m2
06:28 34.2 °F 27.1 °F 30.2 in Calm   1 mph 75% 0 in 0 W/m2
06:33 34 °F 27.1 °F 30.2 in Calm     76% 0 in 0 W/m2
06:38 33.8 °F 27 °F 30.2 in Calm     76% 0 in 0 W/m2
06:43 33.6 °F 26.8 °F 30.2 in Calm   1 mph 76% 0 in 0 W/m2
06:48 33.4 °F 27 °F 30.2 in Calm   2 mph 77% 0 in 5 W/m2
06:53 33.6 °F 27.1 °F 30.3 in NE 0.9 mph 3 mph 77% 0 in 7 W/m2
06:58 33.6 °F 27.1 °F 30.3 in North 0.9 mph 4 mph 77% 0 in 11 W/m2
07:03 33.8 °F 27.3 °F 30.3 in ENE 2 mph 2 mph 77% 0 in 12 W/m2
07:08 34 °F 27.5 °F 30.3 in East 0.9 mph 2 mph 77% 0 in 14 W/m2
07:13 34 °F 27.5 °F 30.3 in Calm   1 mph 77% 0 in 18 W/m2
07:18 34 °F 27.5 °F 30.3 in NE 2.9 mph 3 mph 77% 0 in 19 W/m2
07:23 34.2 °F 27.7 °F 30.3 in WNW 0.9 mph 2 mph 77% 0 in 28 W/m2
07:28 34.2 °F 27.3 °F 30.3 in Calm   2 mph 76% 0 in 23 W/m2
07:33 34.3 °F 27.5 °F 30.3 in North 2.9 mph 4 mph 76% 0 in 26 W/m2
07:38 34.5 °F 27.7 °F 30.3 in NW 0.9 mph 1 mph 76% 0 in 28 W/m2
07:43 34.5 °F 27.7 °F 30.3 in Calm   4 mph 76% 0 in 30 W/m2
07:48 34.7 °F 27.7 °F 30.3 in NE 0.9 mph 2 mph 75% 0 in 33 W/m2
07:53 34.9 °F 27.7 °F 30.3 in NNW 0.9 mph 2 mph 75% 0 in 70 W/m2
07:58 35.1 °F 27.9 °F 30.3 in Calm   3 mph 75% 0 in 141 W/m2
08:03 35.4 °F 28 °F 30.3 in Calm   2 mph 74% 0 in 149 W/m2
08:08 35.8 °F 28 °F 30.3 in NW 0.9 mph 3 mph 73% 0 in 163 W/m2
08:13 36.1 °F 28.4 °F 30.3 in WNW 0.9 mph 3 mph 73% 0 in 179 W/m2
08:18 36.3 °F 28.6 °F 30.3 in SSE 0.9 mph 1 mph 73% 0 in 192 W/m2
08:23 36.7 °F 28.6 °F 30.3 in North 4 mph 4 mph 72% 0 in 204 W/m2
08:28 37 °F 28.6 °F 30.3 in WNW 0.9 mph 7 mph 71% 0 in 218 W/m2
08:33 37.2 °F 28.8 °F 30.3 in North 2.9 mph 6 mph 71% 0 in 230 W/m2
08:38 37.6 °F 28.8 °F 30.3 in North 0.9 mph 4 mph 70% 0 in 243 W/m2
08:43 37.8 °F 28.9 °F 30.3 in NNE 0.9 mph 6 mph 70% 0 in 257 W/m2
08:48 38.1 °F 28.9 °F 30.3 in WNW 0.9 mph 5 mph 69% 0 in 271 W/m2
08:53 38.5 °F 28.8 °F 30.3 in NNW 2 mph 2 mph 68% 0 in 281 W/m2
08:58 38.8 °F 28.8 °F 30.3 in NNE 2 mph 8 mph 67% 0 in 297 W/m2
09:03 39.2 °F 29.1 °F 30.3 in North 4 mph 6 mph 67% 0 in 311 W/m2
09:08 39.6 °F 28.8 °F 30.3 in North 2 mph 4 mph 65% 0 in 323 W/m2
09:13 39.9 °F 28.8 °F 30.3 in ENE 2.9 mph 9 mph 64% 0 in 336 W/m2
09:18 40.3 °F 29.1 °F 30.3 in NNE 2 mph 8 mph 64% 0 in 352 W/m2
09:23 40.6 °F 28.6 °F 30.3 in SSW 2 mph 9 mph 62% 0 in 366 W/m2
09:28 41 °F 28.9 °F 30.3 in NNW 4 mph 4 mph 62% 0 in 378 W/m2
09:33 41.2 °F 28.8 °F 30.3 in NNE 2 mph 9 mph 61% 0 in 390 W/m2
09:38 41.5 °F 28.8 °F 30.3 in ESE 2 mph 6 mph 60% 0 in 399 W/m2
09:43 41.7 °F 29.3 °F 30.3 in NNW 4.9 mph 5 mph 61% 0 in 301 W/m2
09:48 42.3 °F 28.9 °F 30.3 in NE 2 mph 6 mph 59% 0 in 125 W/m2
09:53 42.4 °F 28.8 °F 30.3 in East 10.1 mph 11 mph 58% 0 in 438 W/m2
09:58 42.4 °F 28.2 °F 30.3 in NE 6.9 mph 13 mph 57% 0 in 452 W/m2
10:03 42.4 °F 28.2 °F 30.3 in ENE 6 mph 11 mph 57% 0 in 461 W/m2
10:08 42.6 °F 28.4 °F 30.3 in ENE 2.9 mph 7 mph 57% 0 in 475 W/m2
10:13 43 °F 28.4 °F 30.3 in NW 2.9 mph 7 mph 56% 0 in 483 W/m2
10:18 43.2 °F 28.6 °F 30.3 in West 2.9 mph 10 mph 56% 0 in 496 W/m2
10:23 43.2 °F 28.9 °F 30.3 in East 4.9 mph 6 mph 57% 0 in 508 W/m2
10:28 43.3 °F 29.1 °F 30.3 in West 2.9 mph 8 mph 57% 0 in 515 W/m2
10:33 43.3 °F 28.8 °F 30.3 in East 2.9 mph 8 mph 56% 0 in 473 W/m2
10:38 43.9 °F 29.7 °F 30.3 in NE 6 mph 11 mph 57% 0 in 550 W/m2
10:43 44.1 °F 29.3 °F 30.3 in ENE 0.9 mph 3 mph 56% 0 in 548 W/m2
10:48 44.1 °F 28.9 °F 30.3 in SW 2 mph 6 mph 55% 0 in 554 W/m2
10:53 44.4 °F 29.3 °F 30.3 in NE 4.9 mph 9 mph 55% 0 in 584 W/m2
10:58 44.8 °F 29.1 °F 30.3 in ESE 2 mph 9 mph 54% 0 in 582 W/m2
11:03 45.3 °F 29.7 °F 30.3 in ESE 0.9 mph 4 mph 54% 0 in 585 W/m2
11:09 45.7 °F 29.5 °F 30.3 in East 2.9 mph 7 mph 53% 0 in 612 W/m2
11:14 45.1 °F 28.9 °F 30.3 in ENE 2.9 mph 5 mph 53% 0 in 621 W/m2
11:19 45.5 °F 29.3 °F 30.3 in ESE 6 mph 6 mph 53% 0 in 675 W/m2
11:24 45.9 °F 29.7 °F 30.3 in NE 4 mph 10 mph 53% 0 in 679 W/m2
11:29 46.2 °F 29.5 °F 30.3 in Calm   6 mph 52% 0 in 661 W/m2
11:34 46.6 °F 29.5 °F 30.3 in East 4 mph 11 mph 51% 0 in 668 W/m2
11:39 46.6 °F 29.8 °F 30.3 in ESE 4 mph 8 mph 52% 0 in 687 W/m2
11:44 46.9 °F 30.7 °F 30.3 in ENE 10.1 mph 10 mph 53% 0 in 703 W/m2
11:49 46.4 °F 29.3 °F 30.3 in East 0.9 mph 3 mph 51% 0 in 385 W/m2
11:54 46.2 °F 29.5 °F 30.3 in North 2 mph 3 mph 52% 0 in 452 W/m2
11:59 46.2 °F 29.5 °F 30.3 in WNW 0.9 mph 4 mph 52% 0 in 243 W/m2
12:04 46.6 °F 30.4 °F 30.3 in NNW 2 mph 3 mph 53% 0 in 675 W/m2
12:09 46.9 °F 29.8 °F 30.3 in North 6 mph 9 mph 51% 0 in 684 W/m2
12:14 47.5 °F 29.8 °F 30.3 in ESE 6 mph 9 mph 50% 0 in 689 W/m2
12:19 47.7 °F 30 °F 30.3 in ENE 2 mph 4 mph 50% 0 in 701 W/m2
12:24 47.8 °F 29.7 °F 30.3 in ESE 2 mph 5 mph 49% 0 in 696 W/m2
12:29 48 °F 29.8 °F 30.3 in NNE 2 mph 2 mph 49% 0 in 710 W/m2
12:34 48.4 °F 30.6 °F 30.3 in Calm   2 mph 50% 0 in 747 W/m2
12:39 48.9 °F 30 °F 30.3 in East 6 mph 11 mph 48% 0 in 731 W/m2
12:44 48.9 °F 30 °F 30.3 in NE 2.9 mph 6 mph 48% 0 in 715 W/m2
12:49 48.9 °F 30 °F 30.3 in East 2.9 mph 4 mph 48% 0 in 722 W/m2
12:54 48.9 °F 30.6 °F 30.3 in East 8.1 mph 10 mph 49% 0 in 728 W/m2
12:59 49.3 °F 30.4 °F 30.3 in NE 6 mph 11 mph 48% 0 in 721 W/m2
13:04 49.5 °F 30 °F 30.3 in East 0.9 mph 4 mph 47% 0 in 719 W/m2
13:09 49.6 °F 30.2 °F 30.3 in ENE 2 mph 10 mph 47% 0 in 722 W/m2
13:14 49.8 °F 30.4 °F 30.3 in NNW 2.9 mph 7 mph 47% 0 in 719 W/m2
13:19 49.8 °F 30.4 °F 30.3 in SE 2.9 mph 6 mph 47% 0 in 724 W/m2
13:24 49.8 °F 30.4 °F 30.3 in NNW 0.9 mph 10 mph 47% 0 in 724 W/m2
13:29 50.2 °F 30.2 °F 30.3 in WNW 2.9 mph 4 mph 46% 0 in 721 W/m2
13:34 50.4 °F 30.4 °F 30.3 in NNE 4.9 mph 10 mph 46% 0 in 726 W/m2
13:39 50.7 °F 30.2 °F 30.3 in ENE 2.9 mph 10 mph 45% 0 in 726 W/m2
13:44 50.7 °F 29.7 °F 30.3 in South 0.9 mph 11 mph 44% 0 in 722 W/m2
13:49 50.7 °F 30.7 °F 30.3 in NE 4 mph 12 mph 46% 0 in 722 W/m2
13:54 50.5 °F 30 °F 30.3 in East 2 mph 7 mph 45% 0 in 714 W/m2
14:00 50.5 °F 30 °F 30.3 in NW 2.9 mph 9 mph 45% 0 in 710 W/m2
14:05 50.7 °F 30.7 °F 30.3 in West 2 mph 5 mph 46% 0 in 712 W/m2
14:10 50.7 °F 30.7 °F 30.3 in ENE 4 mph 9 mph 46% 0 in 707 W/m2
14:15 50.7 °F 30.7 °F 30.3 in ENE 4 mph 4 mph 46% 0 in 714 W/m2
14:20 51.1 °F 30.6 °F 30.3 in ENE 2.9 mph 4 mph 45% 0 in 708 W/m2
14:25 51.1 °F 30.6 °F 30.2 in NW 2.9 mph 6 mph 45% 0 in 698 W/m2
14:30 51.4 °F 30.2 °F 30.3 in ENE 2.9 mph 13 mph 44% 0 in 700 W/m2
14:35 51.4 °F 30.2 °F 30.2 in East 6 mph 7 mph 44% 0 in 696 W/m2
14:40 51.6 °F 30.4 °F 30.2 in WNW 2 mph 4 mph 44% 0 in 693 W/m2
14:45 52 °F 30.7 °F 30.2 in NE 4 mph 4 mph 44% 0 in 686 W/m2
14:50 52.2 °F 30.4 °F 30.3 in SE 4.9 mph 9 mph 43% 0 in 682 W/m2
14:55 52 °F 31.3 °F 30.3 in East 0.9 mph 5 mph 45% 0 in 675 W/m2
15:00 52.2 °F 29.8 °F 30.2 in SSW 0.9 mph 3 mph 42% 0 in 673 W/m2
15:05 52.5 °F 30 °F 30.2 in NNW 2.9 mph 14 mph 42% 0 in 663 W/m2
15:10 52.5 °F 30 °F 30.2 in NNE 2 mph 7 mph 42% 0 in 657 W/m2
15:15 52.5 °F 30 °F 30.2 in ESE 0.9 mph 7 mph 42% 0 in 654 W/m2
15:20 52.5 °F 30.7 °F 30.2 in ESE 2.9 mph 4 mph 43% 0 in 647 W/m2
15:25 52.3 °F 31.1 °F 30.2 in ENE 2 mph 6 mph 44% 0 in 640 W/m2
15:30 52.9 °F 30.4 °F 30.2 in SE 6.9 mph 10 mph 42% 0 in 633 W/m2
15:35 52.9 °F 30.4 °F 30.2 in SSE 2 mph 8 mph 42% 0 in 624 W/m2
15:41 52.9 °F 30.9 °F 30.2 in ESE 4 mph 10 mph 43% 0 in 621 W/m2
15:46 52.9 °F 30.9 °F 30.2 in East 8.9 mph 12 mph 43% 0 in 605 W/m2
15:51 52.9 °F 30.4 °F 30.2 in ESE 6 mph 9 mph 42% 0 in 584 W/m2
15:56 53.1 °F 31.1 °F 30.2 in ESE 4 mph 12 mph 43% 0 in 591 W/m2
16:01 53.2 °F 31.3 °F 30.2 in ESE 6.9 mph 9 mph 43% 0 in 582 W/m2
16:06 53.1 °F 30 °F 30.2 in WSW 0.9 mph 2 mph 41% 0 in 573 W/m2
16:11 53.4 °F 31.5 °F 30.2 in Calm   8 mph 43% 0 in 559 W/m2
16:16 54.3 °F 31.1 °F 30.2 in ENE 2 mph 7 mph 41% 0 in 550 W/m2
16:21 54.1 °F 30.4 °F 30.2 in ENE 2.9 mph 4 mph 40% 0 in 545 W/m2
16:26 54.1 °F 30.9 °F 30.2 in ENE 2 mph 10 mph 41% 0 in 531 W/m2
16:32 54.1 °F 30.4 °F 30.2 in North 2.9 mph 9 mph 40% 0 in 519 W/m2
16:37 54.3 °F 30.6 °F 30.2 in East 2.9 mph 6 mph 40% 0 in 513 W/m2
16:42 54.5 °F 30.7 °F 30.2 in North 4 mph 9 mph 40% 0 in 503 W/m2
16:47 54.9 °F 31.6 °F 30.2 in ESE 2 mph 4 mph 41% 0 in 489 W/m2
16:52 55 °F 31.1 °F 30.2 in NNW 2.9 mph 8 mph 40% 0 in 476 W/m2
16:57 54.9 °F 30.4 °F 30.2 in WSW 4 mph 8 mph 39% 0 in 466 W/m2
17:02 54.7 °F 30.9 °F 30.2 in NNE 0.9 mph 9 mph 40% 0 in 452 W/m2
17:07 54.9 °F 30.9 °F 30.2 in NNW 2 mph 4 mph 40% 0 in 439 W/m2
17:12 55 °F 30.6 °F 30.2 in South 0.9 mph 9 mph 39% 0 in 432 W/m2
17:17 55 °F 30.6 °F 30.2 in ENE 2 mph 11 mph 39% 0 in 418 W/m2
17:22 54.9 °F 30.4 °F 30.2 in NNE 2.9 mph 8 mph 39% 0 in 404 W/m2
17:27 54.7 °F 30.9 °F 30.2 in NNW 2 mph 3 mph 40% 0 in 392 W/m2
17:32 54.9 °F 30.9 °F 30.2 in ESE 2.9 mph 9 mph 40% 0 in 381 W/m2
17:37 54.7 °F 30.2 °F 30.2 in NNE 4.9 mph 5 mph 39% 0 in 369 W/m2
17:42 54.9 °F 30.9 °F 30.2 in ESE 0.9 mph 9 mph 40% 0 in 357 W/m2
17:47 54.7 °F 30.2 °F 30.2 in SSE 6 mph 6 mph 39% 0 in 343 W/m2
17:52 54.9 °F 30.4 °F 30.2 in SE 2 mph 4 mph 39% 0 in 332 W/m2
17:57 55 °F 31.1 °F 30.2 in NNW 2 mph 4 mph 40% 0 in 320 W/m2
18:02 55 °F 29.8 °F 30.2 in East 4 mph 4 mph 38% 0 in 304 W/m2
18:07 54.9 °F 30.4 °F 30.2 in North 2 mph 5 mph 39% 0 in 290 W/m2
18:12 55 °F 30.6 °F 30.2 in East 2 mph 4 mph 39% 0 in 279 W/m2
18:17 55 °F 29.8 °F 30.2 in ENE 4 mph 11 mph 38% 0 in 265 W/m2
18:22 54.9 °F 30.4 °F 30.2 in ENE 6 mph 7 mph 39% 0 in 255 W/m2
18:27 54.9 °F 30.4 °F 30.2 in NE 0.9 mph 11 mph 39% 0 in 244 W/m2
18:32 54.9 °F 30.4 °F 30.2 in ENE 2.9 mph 10 mph 39% 0 in 229 W/m2
18:37 54.9 °F 30.9 °F 30.2 in ENE 2 mph 4 mph 40% 0 in 216 W/m2
18:42 54.9 °F 30.4 °F 30.2 in ESE 2 mph 10 mph 39% 0 in 202 W/m2
18:47 54.9 °F 30.4 °F 30.2 in NNW 4.9 mph 5 mph 39% 0 in 185 W/m2
18:52 54.7 °F 30.2 °F 30.2 in NNW 0.9 mph 9 mph 39% 0 in 169 W/m2
18:57 54.5 °F 30 °F 30.2 in West 0.9 mph 5 mph 39% 0 in 155 W/m2
19:02 54.3 °F 29.8 °F 30.2 in NNE 0.9 mph 8 mph 39% 0 in 141 W/m2
19:07 54.1 °F 30.9 °F 30.2 in NNW 4.9 mph 5 mph 41% 0 in 125 W/m2
19:12 54.1 °F 30.4 °F 30.2 in NNW 2.9 mph 6 mph 40% 0 in 113 W/m2
19:17 54 °F 29.5 °F 30.2 in NE 0.9 mph 3 mph 39% 0 in 100 W/m2
19:22 54 °F 30.2 °F 30.2 in SSE 2 mph 3 mph 40% 0 in 86 W/m2
19:27 54 °F 30.7 °F 30.2 in NE 0.9 mph 3 mph 41% 0 in 76 W/m2
19:32 53.6 °F 29.8 °F 30.2 in ENE 2.9 mph 4 mph 40% 0 in 65 W/m2
19:37 53.4 °F 30.4 °F 30.2 in NW 2.9 mph 3 mph 41% 0 in 54 W/m2
19:43 53.2 °F 30.2 °F 30.2 in NE 0.9 mph 6 mph 41% 0 in 46 W/m2
19:48 53.1 °F 30 °F 30.2 in NW 2 mph 4 mph 41% 0 in 35 W/m2
19:53 52.7 °F 30.2 °F 30.2 in NNW 2 mph 6 mph 42% 0 in 23 W/m2
19:58 52.3 °F 29.8 °F 30.2 in WSW 4.9 mph 5 mph 42% 0 in 19 W/m2
20:03 51.8 °F 29.5 °F 30.2 in NW 0.9 mph 6 mph 42% 0 in 16 W/m2
20:08 51.4 °F 29.7 °F 30.2 in NE 0.9 mph 2 mph 43% 0 in 14 W/m2
20:13 51.1 °F 29.8 °F 30.2 in West 0.9 mph 3 mph 44% 0 in 12 W/m2
20:18 50.7 °F 29.7 °F 30.2 in Calm   4 mph 44% 0 in 9 W/m2
20:23 50.5 °F 30 °F 30.2 in ENE 0.9 mph 3 mph 45% 0 in 7 W/m2
20:28 50.4 °F 29.8 °F 30.2 in NNW 0.9 mph 4 mph 45% 0 in 5 W/m2
20:33 50.2 °F 30.2 °F 30.2 in NNW 2 mph 2 mph 46% 0 in 0 W/m2
20:38 49.8 °F 29.8 °F 30.2 in NNE 0.9 mph 3 mph 46% 0 in 0 W/m2
20:43 49.6 °F 30.2 °F 30.2 in Calm   2 mph 47% 0 in 0 W/m2
20:48 49.5 °F 30 °F 30.2 in Calm   2 mph 47% 0 in 0 W/m2
20:53 49.3 °F 30.4 °F 30.2 in Calm   1 mph 48% 0 in 0 W/m2
20:58 48.9 °F 30 °F 30.2 in NNW 0.9 mph 5 mph 48% 0 in 0 W/m2
21:03 48.7 °F 30.4 °F 30.2 in Calm   2 mph 49% 0 in 0 W/m2
21:08 48.6 °F 30.2 °F 30.2 in Calm   5 mph 49% 0 in 0 W/m2
21:13 48.6 °F 30.7 °F 30.2 in Calm   1 mph 50% 0 in 0 W/m2
21:18 48 °F 30.7 °F 30.2 in Calm   2 mph 51% 0 in 0 W/m2
21:23 47.7 °F 31.8 °F 30.2 in Calm   1 mph 54% 0 in 0 W/m2
21:28 47.1 °F 31.3 °F 30.2 in NE 2 mph 2 mph 54% 0 in 0 W/m2
21:33 46.8 °F 31.5 °F 30.2 in Calm   2 mph 55% 0 in 0 W/m2
21:38 46.4 °F 31.1 °F 30.2 in Calm   1 mph 55% 0 in 0 W/m2
21:43 46.2 °F 31.5 °F 30.2 in Calm   1 mph 56% 0 in 0 W/m2
21:48 46 °F 31.3 °F 30.2 in Calm   1 mph 56% 0 in 0 W/m2
21:53 45.9 °F 32 °F 30.2 in ESE 0.9 mph 1 mph 58% 0 in 0 W/m2
21:58 45.3 °F 31.8 °F 30.2 in Calm   1 mph 59% 0 in 0 W/m2
22:03 45.1 °F 31.6 °F 30.2 in SE 2 mph 3 mph 59% 0 in 0 W/m2
22:08 45.1 °F 31.6 °F 30.2 in ESE 0.9 mph 1 mph 59% 0 in 0 W/m2
22:13 45.1 °F 31.6 °F 30.3 in ESE 2 mph 3 mph 59% 0 in 0 W/m2
22:18 45.1 °F 32 °F 30.3 in ESE 0.9 mph 2 mph 60% 0 in 0 W/m2
22:23 45 °F 32 °F 30.3 in Calm   1 mph 60% 0 in 0 W/m2
22:28 44.8 °F 32.2 °F 30.3 in East 0.9 mph 2 mph 61% 0 in 0 W/m2
22:33 44.2 °F 32 °F 30.3 in Calm     62% 0 in 0 W/m2
22:39 43.9 °F 32.2 °F 30.3 in Calm   1 mph 63% 0 in 0 W/m2
22:44 43.3 °F 32 °F 30.3 in East 0.9 mph 1 mph 64% 0 in 0 W/m2
22:49 42.8 °F 31.8 °F 30.3 in Calm   1 mph 65% 0 in 0 W/m2
22:54 42.3 °F 31.6 °F 30.3 in Calm   1 mph 66% 0 in 0 W/m2
22:59 42.1 °F 32 °F 30.3 in Calm   1 mph 67% 0 in 0 W/m2
23:04 41.5 °F 31.8 °F 30.3 in Calm   2 mph 68% 0 in 0 W/m2
23:09 41.4 °F 32 °F 30.3 in SSE 0.9 mph 3 mph 69% 0 in 0 W/m2
23:14 41.2 °F 31.8 °F 30.3 in Calm   3 mph 69% 0 in 0 W/m2
23:19 41.2 °F 31.8 °F 30.3 in Calm     69% 0 in 0 W/m2
23:24 40.8 °F 31.8 °F 30.3 in Calm   2 mph 70% 0 in 0 W/m2
23:29 40.6 °F 32 °F 30.3 in SSW 0.9 mph 3 mph 71% 0 in 0 W/m2
23:34 40.6 °F 32 °F 30.3 in SSW 0.9 mph 2 mph 71% 0 in 0 W/m2
23:39 40.5 °F 31.8 °F 30.3 in Calm   3 mph 71% 0 in 0 W/m2
23:44 40.5 °F 31.8 °F 30.3 in Calm   1 mph 71% 0 in 0 W/m2
23:49 40.3 °F 31.6 °F 30.2 in Calm     71% 0 in 0 W/m2
23:54 39.9 °F 31.6 °F 30.3 in Calm     72% 0 in 0 W/m2
23:59 39.7 °F 31.5 °F 30.3 in Calm   1 mph 72% 0 in 0 W/m2
Juneau County Weather
Compliments of Weather Underground - 2 mb